DECAYED
Showing default

HORIZON GORIZONT, 61757 (Decayed)

Orbit data source: Space-Track

HORIZON GORIZONT, 61757 was a payload satellite owned by BGTU (CIS) in LEO that was launched on Mon, 04 Nov 2024 UTC via a SOYUZ-2-1B launch vehicle from the Vostochny Cosmodrome (VOSTO). Payload-class satellites include a variety of spacecraft equipped with specific instruments for various scientific and technological missions. These include communications satellites like Starlink; space stations such as the ISS; scientific satellites like the Hubble; Earth observation satellites from companies like Planet Labs, Umbra, and HawkEye 360; GPS; miniature CubeSats for education and research; and military/defense satellites.

Not visible in the next 10 days
Identifier
61757, 2024-199Y
Orbit
Decayed
Country
Flag of CISCIS
Related business
Manufacturer
Geoskan
Mission
Decayed Amateur Technology
Bus & Motor
CUBESAT 3U, Unknown motor
Mass
3 kg wet, 3 kg dry
Launch date (UTC)
2024-11-04 (2 years ago)
Launch vehicle
SOYUZ-2-1B
Launch site
Vostochny Cosmodrome (VOSTO)
Object type
Payload
Rocket body
Debris
Shape & HBR
Box, 0.2 m
Radar Cross Section
0.035 m², Medium (>0.1 m² and < 1m²)

Expand to show TLE details & history
Last TLE update: 4 months ago

TLE from 4 months ago
0 HORIZON GORIZONT
1 61757U 24199Y   26136.41906615  .11040808  25135-5  69102-3 0  9995
2 61757  97.2621  19.8566 0009612 240.3007 119.7337 16.41051199133166
Epoch: 2026-05-16T10:03Z
TLE epoch observation values (Epoch: 2026-05-16T10:03:27.315Z)
Latitude
-0.00003°
Longitude
-5.14351°
Altitude
169.388 km
Speed
7.803 km/s
True Right ascension
01h 19m 25s
True Declination
0° 00' 00"
Sunlit
Object was in daylight at epoch
Visualization orbit readout
Latitude
Unknown
Longitude
Unknown
Altitude
Unknown
Speed
Unknown
Apparent Right ascension
Unknown
Apparent Declination
Unknown
Sunlit
N/A
Visualization observer readout
Local Sidereal Time
08:08:05
Azimuth
Unknown
Elevation
Unknown
Doppler factor
Unknown
Orbital elements
Apogee altitude
166.092 km
Perigee altitude
153.523 km
Semi-major axis
6,537.945 km
Eccentricity
0.00096
Inclination
97.2621°
RAAN
19.8566°
Arg. of periapsis
240.3007°
True anomaly
119.82929°
Mean anomaly
119.7337°
Eccentric anomaly
119.7815°
Mean motion
4.10564 °/min
Orbital period
87.68 mins
BSTAR
0.00069102
Loading maneuver chart data...
Computing Atmospheric mass density...
Loading historical data...
Loading historical data...
Loading historical data...
Loading historical data...
Loading historical data...
Loading historical data...
Loading historical data...

Documentation

Showing up to 5 results
|